| time (UTC) | temp C | wind direction | speed KPH | gust KPH | rain 1hr cm | rain 24hr cm | rain mn cm | humidity % | barometer mb |
| 20260509013553 | 17 | 74 | 11.3 | 20.9 | 0.00 | 0.00 | 0.00 | 50 | 1027.7 |
| 20260509013102 | 17 | 59 | 8.0 | 16.1 | 0.00 | 0.00 | 0.00 | 51 | 1027.7 |
| 20260509012552 | 17 | 64 | 8.0 | 19.3 | 0.00 | 0.00 | 0.00 | 51 | 1027.7 |
| 20260509012052 | 16 | 97 | 11.3 | 19.3 | 0.00 | 0.00 | 0.00 | 51 | 1027.8 |
| 20260509011556 | 16 | 61 | 9.7 | 19.3 | 0.00 | 0.00 | 0.00 | 52 | 1027.8 |
| 20260509011053 | 16 | 47 | 9.7 | 19.3 | 0.00 | 0.00 | 0.00 | 52 | 1027.8 |
| 20260509010553 | 16 | 47 | 9.7 | 19.3 | 0.00 | 0.00 | 0.00 | 52 | 1027.9 |
| 20260509010055 | 16 | 15 | 9.7 | 20.9 | 0.00 | 0.00 | 0.00 | 52 | 1027.8 |
| 20260509005553 | 16 | 46 | 8.0 | 20.9 | 0.00 | 0.00 | 0.00 | 53 | 1027.8 |
| 20260509005053 | 16 | 33 | 9.7 | 20.9 | 0.00 | 0.00 | 0.00 | 53 | 1027.9 |
| 20260509004555 | 16 | 70 | 8.0 | 16.1 | 0.00 | 0.00 | 0.00 | 53 | 1028.0 |
| 20260509004055 | 16 | 33 | 8.0 | 16.1 | 0.00 | 0.00 | 0.00 | 54 | 1027.9 |
| 20260509003553 | 16 | 38 | 6.4 | 20.9 | 0.00 | 0.00 | 0.00 | 54 | 1027.8 |
| 20260509003056 | 15 | 68 | 9.7 | 20.9 | 0.00 | 0.00 | 0.00 | 54 | 1027.9 |
| 20260509002557 | 15 | 35 | 11.3 | 20.9 | 0.00 | 0.00 | 0.00 | 54 | 1027.9 |
| 20260509002053 | 15 | 352 | 6.4 | 20.9 | 0.00 | 0.00 | 0.00 | 55 | 1027.8 |
| 20260509001554 | 15 | 34 | 6.4 | 20.9 | 0.00 | 0.00 | 0.00 | 55 | 1027.8 |
| 20260509001053 | 15 | 43 | 9.7 | 20.9 | 0.00 | 0.00 | 0.00 | 56 | 1027.7 |
| 20260509000552 | 15 | 42 | 8.0 | 14.5 | 0.00 | 0.00 | 0.00 | 56 | 1027.7 |
| 20260509000109 | 15 | 69 | 6.4 | 17.7 | 0.00 | 0.00 | 0.00 | 56 | 1027.6 |
| 20260508235553 | 15 | 36 | 8.0 | 17.7 | 0.00 | 0.00 | 0.00 | 56 | 1027.7 |
| 20260508235050 | 15 | 98 | 6.4 | 14.5 | 0.00 | 0.00 | 0.00 | 57 | 1027.6 |
| 20260508234608 | 15 | 38 | 6.4 | 12.9 | 0.00 | 0.00 | 0.00 | 57 | 1027.6 |
| 20260508234053 | 14 | 71 | 4.8 | 14.5 | 0.00 | 0.00 | 0.00 | 57 | 1027.6 |
| 20260508233553 | 14 | 51 | 8.0 | 14.5 | 0.00 | 0.00 | 0.00 | 57 | 1027.5 |
| 20260508233058 | 14 | 63 | 6.4 | 12.9 | 0.00 | 0.00 | 0.00 | 58 | 1027.4 |
| 20260508232554 | 14 | 61 | 4.8 | 12.9 | 0.00 | 0.00 | 0.00 | 58 | 1027.4 |
| 20260508232053 | 14 | 60 | 6.4 | 11.3 | 0.00 | 0.00 | 0.00 | 57 | 1027.5 |
| 20260508231552 | 14 | 55 | 6.4 | 11.3 | 0.00 | 0.00 | 0.00 | 58 | 1027.4 |
| 20260508231052 | 14 | 56 | 6.4 | 14.5 | 0.00 | 0.00 | 0.00 | 58 | 1027.3 |
| 20260508230552 | 14 | 44 | 6.4 | 14.5 | 0.00 | 0.00 | 0.00 | 58 | 1027.4 |
| 20260508230101 | 14 | 50 | 6.4 | 14.5 | 0.00 | 0.00 | 0.00 | 58 | 1027.3 |
| 20260508225553 | 14 | 67 | 6.4 | 12.9 | 0.00 | 0.00 | 0.00 | 57 | 1027.3 |
| 20260508225053 | 14 | 34 | 4.8 | 14.5 | 0.00 | 0.00 | 0.00 | 57 | 1027.4 |
| 20260508224557 | 14 | 46 | 4.8 | 14.5 | 0.00 | 0.00 | 0.00 | 57 | 1027.2 |
| 20260508224055 | 14 | 57 | 6.4 | 12.9 | 0.00 | 0.00 | 0.00 | 57 | 1027.2 |
| 20260508223557 | 14 | 61 | 4.8 | 11.3 | 0.00 | 0.00 | 0.00 | 56 | 1027.2 |
| 20260508223054 | 14 | 57 | 4.8 | 16.1 | 0.00 | 0.00 | 0.00 | 56 | 1027.1 |
| 20260508222553 | 14 | 29 | 4.8 | 19.3 | 0.00 | 0.00 | 0.00 | 56 | 1027.2 |
| 20260508222052 | 15 | 61 | 9.7 | 19.3 | 0.00 | 0.00 | 0.00 | 56 | 1027.0 |
| 20260508221602 | 15 | 71 | 6.4 | 16.1 | 0.00 | 0.00 | 0.00 | 56 | 1027.1 |
| 20260508221131 | 15 | 53 | 6.4 | 17.7 | 0.00 | 0.00 | 0.00 | 56 | 1027.1 |
| 20260508220554 | 15 | 26 | 6.4 | 17.7 | 0.00 | 0.00 | 0.00 | 55 | 1027.1 |
| 20260508220054 | 15 | 35 | 8.0 | 17.7 | 0.00 | 0.00 | 0.00 | 55 | 1027.0 |
| 20260508215553 | 15 | 38 | 4.8 | 16.1 | 0.00 | 0.00 | 0.00 | 55 | 1026.9 |
| 20260508215053 | 15 | 31 | 4.8 | 14.5 | 0.00 | 0.00 | 0.00 | 55 | 1027.0 |
| 20260508214607 | 15 | 30 | 6.4 | 14.5 | 0.00 | 0.00 | 0.00 | 55 | 1027.0 |
| 20260508214054 | 15 | 37 | 8.0 | 17.7 | 0.00 | 0.00 | 0.00 | 55 | 1027.0 |
| 20260508213550 | 15 | 78 | 6.4 | 17.7 | 0.00 | 0.00 | 0.00 | 54 | 1027.0 |
| 20260508213101 | 15 | 17 | 6.4 | 16.1 | 0.00 | 0.00 | 0.00 | 54 | 1026.8 |
| 20260508212558 | 15 | 42 | 6.4 | 19.3 | 0.00 | 0.00 | 0.00 | 54 | 1026.7 |
| 20260508212056 | 15 | 51 | 6.4 | 19.3 | 0.00 | 0.00 | 0.00 | 53 | 1026.7 |
| 20260508211559 | 15 | 63 | 8.0 | 20.9 | 0.00 | 0.00 | 0.00 | 53 | 1026.5 |
| 20260508211053 | 15 | 68 | 9.7 | 20.9 | 0.00 | 0.00 | 0.00 | 53 | 1026.4 |
| 20260508210555 | 15 | 63 | 9.7 | 19.3 | 0.00 | 0.00 | 0.00 | 53 | 1026.4 |
| 20260508210053 | 15 | 63 | 11.3 | 20.9 | 0.00 | 0.00 | 0.00 | 53 | 1026.4 |
| 20260508205553 | 15 | 61 | 9.7 | 20.9 | 0.00 | 0.00 | 0.00 | 53 | 1026.4 |
| 20260508205053 | 15 | 58 | 6.4 | 16.1 | 0.00 | 0.00 | 0.00 | 53 | 1026.5 |
| 20260508204602 | 15 | 40 | 9.7 | 16.1 | 0.00 | 0.00 | 0.00 | 53 | 1026.3 |
| 20260508204056 | 15 | 51 | 6.4 | 16.1 | 0.00 | 0.00 | 0.00 | 53 | 1026.4 |
| 20260508203553 | 15 | 53 | 4.8 | 16.1 | 0.00 | 0.00 | 0.00 | 53 | 1026.3 |
| 20260508203058 | 15 | 54 | 8.0 | 16.1 | 0.00 | 0.00 | 0.00 | 53 | 1026.3 |
| 20260508202553 | 15 | 65 | 8.0 | 16.1 | 0.00 | 0.00 | 0.00 | 53 | 1026.4 |
| 20260508202053 | 15 | 51 | 6.4 | 16.1 | 0.00 | 0.00 | 0.00 | 53 | 1026.3 |
| 20260508201608 | 15 | 69 | 6.4 | 16.1 | 0.00 | 0.00 | 0.00 | 53 | 1026.3 |
| 20260508201055 | 15 | 44 | 8.0 | 17.7 | 0.00 | 0.00 | 0.00 | 53 | 1026.1 |
| 20260508200553 | 15 | 112 | 8.0 | 19.3 | 0.00 | 0.00 | 0.00 | 53 | 1026.1 |
| 20260508200108 | 15 | 44 | 8.0 | 19.3 | 0.00 | 0.00 | 0.00 | 53 | 1026.0 |
| 20260508195553 | 15 | 78 | 9.7 | 19.3 | 0.00 | 0.00 | 0.00 | 54 | 1026.0 |
| 20260508195053 | 15 | 110 | 9.7 | 19.3 | 0.00 | 0.00 | 0.00 | 54 | 1025.9 |
| 20260508194552 | 15 | 60 | 8.0 | 17.7 | 0.00 | 0.00 | 0.00 | 54 | 1025.9 |
| 20260508194054 | 15 | 71 | 9.7 | 19.3 | 0.00 | 0.00 | 0.00 | 54 | 1025.9 |
| 20260508193553 | 15 | 43 | 9.7 | 19.3 | 0.00 | 0.00 | 0.00 | 54 | 1025.8 |
| 20260508193057 | 15 | 63 | 8.0 | 17.7 | 0.00 | 0.00 | 0.00 | 54 | 1025.9 |
| 20260508192553 | 15 | 48 | 8.0 | 17.7 | 0.00 | 0.00 | 0.00 | 54 | 1025.9 |
| 20260508192054 | 15 | 61 | 8.0 | 17.7 | 0.00 | 0.00 | 0.00 | 53 | 1026.0 |
| 20260508191552 | 15 | 49 | 8.0 | 17.7 | 0.00 | 0.00 | 0.00 | 53 | 1025.9 |
| 20260508191053 | 15 | 55 | 6.4 | 16.1 | 0.00 | 0.00 | 0.00 | 53 | 1025.9 |
| 20260508190554 | 15 | 26 | 8.0 | 17.7 | 0.00 | 0.00 | 0.00 | 53 | 1026.0 |
| 20260508185552 | 15 | 40 | 8.0 | 16.1 | 0.00 | 0.00 | 0.00 | 53 | 1025.8 |
| 20260508185053 | 15 | 65 | 6.4 | 17.7 | 0.00 | 0.00 | 0.00 | 53 | 1025.9 |
| 20260508184552 | 15 | 102 | 8.0 | 17.7 | 0.00 | 0.00 | 0.00 | 53 | 1025.9 |
| 20260508184057 | 15 | 63 | 6.4 | 17.7 | 0.00 | 0.00 | 0.00 | 52 | 1025.9 |
| 20260508183552 | 15 | 74 | 9.7 | 17.7 | 0.00 | 0.00 | 0.00 | 52 | 1025.9 |
| 20260508183059 | 15 | 72 | 8.0 | 14.5 | 0.00 | 0.00 | 0.00 | 52 | 1025.9 |
| 20260508182553 | 15 | 46 | 6.4 | 16.1 | 0.00 | 0.00 | 0.00 | 52 | 1026.0 |
| 20260508182052 | 16 | 69 | 6.4 | 16.1 | 0.00 | 0.00 | 0.00 | 51 | 1026.0 |
| 20260508181613 | 16 | 81 | 8.0 | 20.9 | 0.00 | 0.00 | 0.00 | 51 | 1025.9 |
| 20260508181055 | 16 | 30 | 6.4 | 20.9 | 0.00 | 0.00 | 0.00 | 51 | 1025.9 |
| 20260508180553 | 16 | 45 | 9.7 | 17.7 | 0.00 | 0.00 | 0.00 | 51 | 1025.9 |
| 20260508180113 | 16 | 39 | 9.7 | 17.7 | 0.00 | 0.00 | 0.00 | 50 | 1025.8 |
| 20260508175553 | 16 | 55 | 6.4 | 22.5 | 0.00 | 0.00 | 0.00 | 50 | 1026.0 |
| 20260508175053 | 16 | 26 | 8.0 | 22.5 | 0.00 | 0.00 | 0.00 | 50 | 1026.0 |
| 20260508174607 | 16 | 58 | 8.0 | 20.9 | 0.00 | 0.00 | 0.00 | 49 | 1025.9 |
| 20260508174057 | 16 | 55 | 9.7 | 20.9 | 0.00 | 0.00 | 0.00 | 50 | 1026.0 |
| 20260508173553 | 16 | 55 | 8.0 | 19.3 | 0.00 | 0.00 | 0.00 | 49 | 1026.0 |
| 20260508173057 | 16 | 80 | 8.0 | 19.3 | 0.00 | 0.00 | 0.00 | 49 | 1025.9 |
| 20260508172556 | 16 | 73 | 9.7 | 19.3 | 0.00 | 0.00 | 0.00 | 49 | 1025.8 |
| 20260508172054 | 16 | 78 | 8.0 | 22.5 | 0.00 | 0.00 | 0.00 | 49 | 1025.9 |
| 20260508171554 | 16 | 63 | 11.3 | 22.5 | 0.00 | 0.00 | 0.00 | 48 | 1025.9 |
| 20260508171052 | 16 | 45 | 8.0 | 16.1 | 0.00 | 0.00 | 0.00 | 48 | 1026.0 |
| 20260508170554 | 16 | 111 | 8.0 | 19.3 | 0.00 | 0.00 | 0.00 | 48 | 1025.9 |
| 20260508170059 | 16 | 134 | 6.4 | 19.3 | 0.00 | 0.00 | 0.00 | 48 | 1026.0 |
| 20260508165552 | 17 | 107 | 8.0 | 17.7 | 0.00 | 0.00 | 0.00 | 48 | 1026.0 |
| 20260508165053 | 17 | 17 | 9.7 | 17.7 | 0.00 | 0.00 | 0.00 | 48 | 1026.0 |
| 20260508164606 | 17 | 67 | 8.0 | 17.7 | 0.00 | 0.00 | 0.00 | 48 | 1026.1 |
| 20260508164053 | 16 | 99 | 6.4 | 16.1 | 0.00 | 0.00 | 0.00 | 48 | 1026.1 |
| 20260508163555 | 16 | 59 | 4.8 | 17.7 | 0.00 | 0.00 | 0.00 | 48 | 1026.1 |
| 20260508163053 | 16 | 66 | 6.4 | 17.7 | 0.00 | 0.00 | 0.00 | 48 | 1026.1 |
| 20260508162553 | 16 | 12 | 4.8 | 9.7 | 0.00 | 0.00 | 0.00 | 48 | 1025.9 |
| 20260508162051 | 17 | 65 | 3.2 | 9.7 | 0.00 | 0.00 | 0.00 | 47 | 1026.0 |
| 20260508161556 | 17 | 82 | 3.2 | 16.1 | 0.00 | 0.00 | 0.00 | 47 | 1025.9 |
| 20260508161053 | 17 | 76 | 6.4 | 16.1 | 0.00 | 0.00 | 0.00 | 46 | 1025.8 |
| 20260508160552 | 17 | 42 | 3.2 | 14.5 | 0.00 | 0.00 | 0.00 | 46 | 1025.9 |
| 20260508160055 | 17 | 53 | 6.4 | 14.5 | 0.00 | 0.00 | 0.00 | 46 | 1025.8 |
| 20260508155551 | 17 | 57 | 4.8 | 14.5 | 0.00 | 0.00 | 0.00 | 45 | 1026.0 |
| 20260508155053 | 17 | 61 | 4.8 | 14.5 | 0.00 | 0.00 | 0.00 | 45 | 1025.8 |
| 20260508154601 | 17 | 93 | 6.4 | 14.5 | 0.00 | 0.00 | 0.00 | 45 | 1025.9 |
| 20260508154055 | 17 | 84 | 3.2 | 12.9 | 0.00 | 0.00 | 0.00 | 45 | 1025.9 |
| 20260508153553 | 17 | 86 | 4.8 | 12.9 | 0.00 | 0.00 | 0.00 | 45 | 1025.9 |
| 20260508153053 | 17 | 86 | 3.2 | 12.9 | 0.00 | 0.00 | 0.00 | 45 | 1025.9 |
| 20260508152556 | 17 | 64 | 4.8 | 12.9 | 0.00 | 0.00 | 0.00 | 45 | 1025.8 |
| 20260508152054 | 17 | 67 | 4.8 | 12.9 | 0.00 | 0.00 | 0.00 | 45 | 1025.8 |
| 20260508151604 | 17 | 71 | 3.2 | 11.3 | 0.00 | 0.00 | 0.00 | 45 | 1025.8 |
| 20260508151052 | 17 | 32 | 4.8 | 12.9 | 0.00 | 0.00 | 0.00 | 45 | 1025.9 |
| 20260508150554 | 17 | 107 | 4.8 | 12.9 | 0.00 | 0.00 | 0.00 | 46 | 1025.8 |
| 20260508150055 | 17 | 65 | 3.2 | 11.3 | 0.00 | 0.00 | 0.00 | 46 | 1025.9 |
| 20260508145553 | 17 | 94 | 4.8 | 12.9 | 0.00 | 0.00 | 0.00 | 46 | 1025.9 |
| 20260508145056 | 17 | 86 | 3.2 | 14.5 | 0.00 | 0.00 | 0.00 | 46 | 1026.0 |
| 20260508144553 | 17 | 90 | 4.8 | 14.5 | 0.00 | 0.00 | 0.00 | 46 | 1026.1 |
| 20260508144053 | 17 | 105 | 6.4 | 14.5 | 0.00 | 0.00 | 0.00 | 46 | 1025.9 |
| 20260508143553 | 17 | 105 | 4.8 | 14.5 | 0.00 | 0.00 | 0.00 | 46 | 1026.2 |
| 20260508143058 | 17 | 98 | 6.4 | 12.9 | 0.00 | 0.00 | 0.00 | 47 | 1026.1 |
| 20260508142552 | 17 | 95 | 4.8 | 12.9 | 0.00 | 0.00 | 0.00 | 47 | 1026.2 |
| 20260508142053 | 17 | 100 | 3.2 | 12.9 | 0.00 | 0.00 | 0.00 | 47 | 1026.2 |
| 20260508141600 | 17 | 101 | 4.8 | 11.3 | 0.00 | 0.00 | 0.00 | 48 | 1026.2 |
| 20260508141053 | 17 | 90 | 3.2 | 11.3 | 0.00 | 0.00 | 0.00 | 48 | 1026.2 |
| 20260508140558 | 17 | 91 | 4.8 | 11.3 | 0.00 | 0.00 | 0.00 | 48 | 1026.2 |
| 20260508140106 | 17 | 91 | 3.2 | 11.3 | 0.00 | 0.00 | 0.00 | 49 | 1026.3 |
| 20260508135555 | 17 | 90 | 4.8 | 11.3 | 0.00 | 0.00 | 0.00 | 49 | 1026.2 |
| 20260508135052 | 17 | 90 | 6.4 | 11.3 | 0.00 | 0.00 | 0.00 | 48 | 1026.1 |
| 20260508134553 | 17 | 94 | 4.8 | 12.9 | 0.00 | 0.00 | 0.00 | 49 | 1026.1 |
| 20260508134053 | 17 | 101 | 6.4 | 12.9 | 0.00 | 0.00 | 0.00 | 49 | 1026.1 |
| 20260508133553 | 17 | 92 | 8.0 | 12.9 | 0.00 | 0.00 | 0.00 | 49 | 1026.1 |
| 20260508133052 | 17 | 87 | 4.8 | 12.9 | 0.00 | 0.00 | 0.00 | 49 | 1026.2 |
| 20260508132553 | 17 | 89 | 4.8 | 12.9 | 0.00 | 0.00 | 0.00 | 49 | 1026.2 |
| 20260508132053 | 18 | 94 | 8.0 | 19.3 | 0.00 | 0.00 | 0.00 | 48 | 1026.2 |
| 20260508131558 | 18 | 73 | 6.4 | 19.3 | 0.00 | 0.00 | 0.00 | 48 | 1026.2 |
| 20260508131054 | 18 | 80 | 8.0 | 17.7 | 0.00 | 0.00 | 0.00 | 48 | 1026.1 |
| 20260508130556 | 18 | 94 | 9.7 | 17.7 | 0.00 | 0.00 | 0.00 | 48 | 1026.0 |
| 20260508130052 | 18 | 92 | 9.7 | 17.7 | 0.00 | 0.00 | 0.00 | 48 | 1026.0 |
| 20260508125553 | 18 | 82 | 8.0 | 14.5 | 0.00 | 0.00 | 0.00 | 48 | 1026.0 |
| 20260508125052 | 18 | 90 | 8.0 | 14.5 | 0.00 | 0.00 | 0.00 | 48 | 1026.0 |
| 20260508124555 | 18 | 106 | 6.4 | 14.5 | 0.00 | 0.00 | 0.00 | 48 | 1026.0 |
| 20260508124052 | 18 | 94 | 8.0 | 14.5 | 0.00 | 0.00 | 0.00 | 48 | 1026.0 |
| 20260508123552 | 18 | 74 | 6.4 | 14.5 | 0.00 | 0.00 | 0.00 | 48 | 1025.9 |
| 20260508123054 | 18 | 78 | 4.8 | 14.5 | 0.00 | 0.00 | 0.00 | 48 | 1025.9 |
| 20260508122553 | 18 | 78 | 4.8 | 14.5 | 0.00 | 0.00 | 0.00 | 48 | 1025.9 |
| 20260508122053 | 18 | 78 | 4.8 | 12.9 | 0.00 | 0.00 | 0.00 | 48 | 1025.9 |
| 20260508121559 | 18 | 86 | 4.8 | 12.9 | 0.00 | 0.00 | 0.00 | 48 | 1025.8 |
| 20260508121057 | 18 | 85 | 3.2 | 11.3 | 0.00 | 0.00 | 0.00 | 48 | 1025.8 |
| 20260508120552 | 18 | 84 | 4.8 | 11.3 | 0.00 | 0.00 | 0.00 | 48 | 1025.9 |
| 20260508120101 | 18 | 84 | 4.8 | 11.3 | 0.00 | 0.00 | 0.00 | 48 | 1025.9 |
| 20260508115553 | 18 | 87 | 3.2 | 6.4 | 0.00 | 0.00 | 0.00 | 48 | 1025.8 |
| 20260508115052 | 18 | 88 | 3.2 | 6.4 | 0.00 | 0.00 | 0.00 | 48 | 1025.9 |
| 20260508114555 | 18 | 88 | 3.2 | 9.7 | 0.00 | 0.00 | 0.00 | 47 | 1025.9 |
| 20260508114053 | 19 | 88 | 3.2 | 14.5 | 0.00 | 0.00 | 0.00 | 47 | 1025.9 |
| 20260508113553 | 19 | 88 | 4.8 | 14.5 | 0.00 | 0.00 | 0.00 | 47 | 1025.9 |
| 20260508113057 | 19 | 86 | 6.4 | 14.5 | 0.00 | 0.00 | 0.00 | 46 | 1025.9 |
| 20260508112552 | 19 | 94 | 4.8 | 14.5 | 0.00 | 0.00 | 0.00 | 46 | 1025.9 |
| 20260508112052 | 19 | 96 | 6.4 | 14.5 | 0.00 | 0.00 | 0.00 | 46 | 1025.9 |
| 20260508111600 | 19 | 106 | 8.0 | 14.5 | 0.00 | 0.00 | 0.00 | 46 | 1025.9 |
| 20260508111054 | 19 | 95 | 4.8 | 11.3 | 0.00 | 0.00 | 0.00 | 47 | 1026.0 |
| 20260508110554 | 19 | 107 | 4.8 | 11.3 | 0.00 | 0.00 | 0.00 | 47 | 1025.8 |
| 20260508105556 | 19 | 108 | 3.2 | 9.7 | 0.00 | 0.00 | 0.00 | 46 | 1025.9 |
| 20260508105053 | 20 | 108 | 3.2 | 6.4 | 0.00 | 0.00 | 0.00 | 46 | 1025.9 |
| 20260508104551 | 20 | 109 | 3.2 | 6.4 | 0.00 | 0.00 | 0.00 | 45 | 1025.8 |
| 20260508104053 | 20 | 109 | 3.2 | 9.7 | 0.00 | 0.00 | 0.00 | 45 | 1025.9 |
| 20260508103553 | 20 | 109 | 3.2 | 12.9 | 0.00 | 0.00 | 0.00 | 44 | 1025.9 |
| 20260508103120 | 20 | 109 | 6.4 | 12.9 | 0.00 | 0.00 | 0.00 | 44 | 1025.8 |
| 20260508102552 | 20 | 72 | 4.8 | 12.9 | 0.00 | 0.00 | 0.00 | 44 | 1025.7 |
| 20260508102053 | 20 | 84 | 6.4 | 14.5 | 0.00 | 0.00 | 0.00 | 44 | 1025.7 |
| 20260508101605 | 20 | 57 | 6.4 | 17.7 | 0.00 | 0.00 | 0.00 | 43 | 1025.6 |
| 20260508101053 | 20 | 71 | 6.4 | 17.7 | 0.00 | 0.00 | 0.00 | 43 | 1025.6 |
| 20260508100553 | 20 | 92 | 9.7 | 16.1 | 0.00 | 0.00 | 0.00 | 43 | 1025.6 |
| 20260508100053 | 20 | 53 | 6.4 | 16.1 | 0.00 | 0.00 | 0.00 | 43 | 1025.5 |
| 20260508095554 | 21 | 98 | 8.0 | 16.1 | 0.00 | 0.00 | 0.00 | 43 | 1025.5 |
| 20260508095053 | 21 | 34 | 8.0 | 14.5 | 0.00 | 0.00 | 0.00 | 43 | 1025.3 |
| 20260508094607 | 21 | 118 | 4.8 | 14.5 | 0.00 | 0.00 | 0.00 | 43 | 1025.5 |
| 20260508094053 | 21 | 88 | 4.8 | 19.3 | 0.00 | 0.00 | 0.00 | 43 | 1025.4 |
| 20260508093553 | 21 | 107 | 8.0 | 19.3 | 0.00 | 0.00 | 0.00 | 42 | 1025.4 |
| 20260508093055 | 21 | 92 | 8.0 | 19.3 | 0.00 | 0.00 | 0.00 | 42 | 1025.3 |
| 20260508092553 | 21 | 113 | 6.4 | 14.5 | 0.00 | 0.00 | 0.00 | 42 | 1025.3 |
| 20260508092056 | 21 | 126 | 4.8 | 19.3 | 0.00 | 0.00 | 0.00 | 42 | 1025.2 |
| 20260508091550 | 21 | 109 | 9.7 | 22.5 | 0.00 | 0.00 | 0.00 | 41 | 1025.2 |
| 20260508091053 | 21 | 114 | 8.0 | 22.5 | 0.00 | 0.00 | 0.00 | 41 | 1025.2 |
| 20260508090553 | 21 | 85 | 11.3 | 22.5 | 0.00 | 0.00 | 0.00 | 41 | 1025.2 |
| 20260508090110 | 22 | 94 | 11.3 | 20.9 | 0.00 | 0.00 | 0.00 | 41 | 1025.2 |
| 20260508085553 | 22 | 98 | 8.0 | 20.9 | 0.00 | 0.00 | 0.00 | 42 | 1025.1 |
| 20260508085053 | 22 | 72 | 11.3 | 22.5 | 0.00 | 0.00 | 0.00 | 41 | 1025.1 |
| 20260508084555 | 22 | 28 | 11.3 | 24.1 | 0.00 | 0.00 | 0.00 | 41 | 1024.9 |
| 20260508084053 | 22 | 115 | 14.5 | 24.1 | 0.00 | 0.00 | 0.00 | 41 | 1024.9 |
| 20260508083554 | 22 | 125 | 11.3 | 22.5 | 0.00 | 0.00 | 0.00 | 41 | 1024.9 |
| 20260508083112 | 22 | 79 | 8.0 | 22.5 | 0.00 | 0.00 | 0.00 | 42 | 1024.8 |
| 20260508082553 | 22 | 87 | 9.7 | 22.5 | 0.00 | 0.00 | 0.00 | 42 | 1024.9 |
| 20260508082052 | 22 | 96 | 9.7 | 24.1 | 0.00 | 0.00 | 0.00 | 41 | 1025.0 |
| 20260508081557 | 22 | 61 | 12.9 | 25.7 | 0.00 | 0.00 | 0.00 | 41 | 1024.9 |
| 20260508081054 | 22 | 17 | 9.7 | 25.7 | 0.00 | 0.00 | 0.00 | 41 | 1025.0 |
| 20260508080553 | 22 | 87 | 12.9 | 25.7 | 0.00 | 0.00 | 0.00 | 41 | 1025.0 |
| 20260508080054 | 22 | 126 | 9.7 | 20.9 | 0.00 | 0.00 | 0.00 | 41 | 1025.0 |
| 20260508075555 | 22 | 120 | 8.0 | 20.9 | 0.00 | 0.00 | 0.00 | 41 | 1025.0 |
| 20260508075053 | 22 | 71 | 9.7 | 24.1 | 0.00 | 0.00 | 0.00 | 41 | 1025.1 |
| 20260508074555 | 22 | 71 | 9.7 | 27.4 | 0.00 | 0.00 | 0.00 | 41 | 1025.1 |
| 20260508074055 | 22 | 99 | 11.3 | 27.4 | 0.00 | 0.00 | 0.00 | 41 | 1025.0 |
| 20260508073553 | 22 | 113 | 9.7 | 20.9 | 0.00 | 0.00 | 0.00 | 41 | 1025.0 |
| 20260508073054 | 22 | 111 | 9.7 | 20.9 | 0.00 | 0.00 | 0.00 | 41 | 1025.0 |
| 20260508072552 | 22 | 61 | 9.7 | 20.9 | 0.00 | 0.00 | 0.00 | 40 | 1025.0 |
| 20260508072054 | 22 | 34 | 9.7 | 20.9 | 0.00 | 0.00 | 0.00 | 40 | 1025.0 |
| 20260508071552 | 22 | 48 | 11.3 | 20.9 | 0.00 | 0.00 | 0.00 | 40 | 1025.0 |
| 20260508071054 | 22 | 85 | 9.7 | 19.3 | 0.00 | 0.00 | 0.00 | 40 | 1024.9 |
| 20260508070551 | 22 | 86 | 9.7 | 24.1 | 0.00 | 0.00 | 0.00 | 40 | 1025.1 |
| 20260508070056 | 22 | 43 | 12.9 | 24.1 | 0.00 | 0.00 | 0.00 | 40 | 1025.2 |
| 20260508065553 | 22 | 103 | 8.0 | 19.3 | 0.00 | 0.00 | 0.00 | 41 | 1025.1 |
| 20260508065053 | 22 | 99 | 9.7 | 19.3 | 0.00 | 0.00 | 0.00 | 40 | 1025.1 |
| 20260508064556 | 22 | 58 | 8.0 | 17.7 | 0.00 | 0.00 | 0.00 | 41 | 1025.2 |
| 20260508064053 | 22 | 128 | 8.0 | 20.9 | 0.00 | 0.00 | 0.00 | 43 | 1025.1 |
| 20260508063553 | 22 | 84 | 9.7 | 22.5 | 0.00 | 0.00 | 0.00 | 43 | 1025.4 |
| 20260508063054 | 22 | 51 | 8.0 | 25.7 | 0.00 | 0.00 | 0.00 | 43 | 1025.3 |
| 20260508062552 | 22 | 24 | 14.5 | 25.7 | 0.00 | 0.00 | 0.00 | 43 | 1025.3 |
| 20260508062056 | 22 | 110 | 8.0 | 17.7 | 0.00 | 0.00 | 0.00 | 43 | 1025.3 |
| 20260508061556 | 22 | 127 | 8.0 | 19.3 | 0.00 | 0.00 | 0.00 | 44 | 1025.5 |
| 20260508061053 | 22 | 63 | 4.8 | 20.9 | 0.00 | 0.00 | 0.00 | 45 | 1025.5 |
| 20260508060553 | 22 | 78 | 9.7 | 22.5 | 0.00 | 0.00 | 0.00 | 44 | 1025.7 |
| 20260508060107 | 22 | 104 | 11.3 | 22.5 | 0.00 | 0.00 | 0.00 | 44 | 1025.7 |
| 20260508055552 | 22 | 95 | 11.3 | 22.5 | 0.00 | 0.00 | 0.00 | 45 | 1025.7 |
| 20260508055052 | 22 | 43 | 11.3 | 22.5 | 0.00 | 0.00 | 0.00 | 45 | 1025.8 |
| 20260508054604 | 22 | 124 | 9.7 | 24.1 | 0.00 | 0.00 | 0.00 | 46 | 1025.8 |
| 20260508054052 | 22 | 115 | 11.3 | 24.1 | 0.00 | 0.00 | 0.00 | 46 | 1026.0 |
| 20260508053553 | 22 | 53 | 11.3 | 24.1 | 0.00 | 0.00 | 0.00 | 46 | 1025.9 |
| 20260508053056 | 22 | 40 | 8.0 | 20.9 | 0.00 | 0.00 | 0.00 | 46 | 1025.9 |
| 20260508052553 | 21 | 75 | 9.7 | 25.7 | 0.00 | 0.00 | 0.00 | 47 | 1026.0 |
| 20260508052053 | 21 | 124 | 8.0 | 25.7 | 0.00 | 0.00 | 0.00 | 48 | 1026.1 |
| 20260508051556 | 21 | 98 | 14.5 | 25.7 | 0.00 | 0.00 | 0.00 | 48 | 1026.0 |
| 20260508051053 | 21 | 83 | 12.9 | 25.7 | 0.00 | 0.00 | 0.00 | 48 | 1026.2 |
| 20260508050553 | 21 | 65 | 6.4 | 20.9 | 0.00 | 0.00 | 0.00 | 48 | 1026.2 |
| 20260508050058 | 21 | 101 | 11.3 | 20.9 | 0.00 | 0.00 | 0.00 | 48 | 1026.4 |
| 20260508045552 | 21 | 111 | 9.7 | 20.9 | 0.00 | 0.00 | 0.00 | 48 | 1026.5 |
| 20260508045052 | 21 | 84 | 11.3 | 20.9 | 0.00 | 0.00 | 0.00 | 48 | 1026.5 |
| 20260508044554 | 21 | 88 | 8.0 | 24.1 | 0.00 | 0.00 | 0.00 | 48 | 1026.7 |
| 20260508044054 | 21 | 121 | 8.0 | 24.1 | 0.00 | 0.00 | 0.00 | 49 | 1026.6 |
| 20260508043553 | 21 | 51 | 14.5 | 24.1 | 0.00 | 0.00 | 0.00 | 48 | 1026.9 |
| 20260508043100 | 21 | 65 | 12.9 | 20.9 | 0.00 | 0.00 | 0.00 | 47 | 1027.0 |
| 20260508042553 | 21 | 40 | 6.4 | 19.3 | 0.00 | 0.00 | 0.00 | 49 | 1027.0 |
| 20260508042057 | 21 | 57 | 8.0 | 20.9 | 0.00 | 0.00 | 0.00 | 49 | 1027.0 |
| 20260508041559 | 21 | 67 | 8.0 | 20.9 | 0.00 | 0.00 | 0.00 | 49 | 1027.2 |
| 20260508041053 | 21 | 30 | 11.3 | 20.9 | 0.00 | 0.00 | 0.00 | 49 | 1027.3 |
| 20260508040553 | 21 | 101 | 9.7 | 19.3 | 0.00 | 0.00 | 0.00 | 50 | 1027.3 |
| 20260508040056 | 20 | 61 | 8.0 | 20.9 | 0.00 | 0.00 | 0.00 | 51 | 1027.5 |
| 20260508035553 | 20 | 119 | 8.0 | 25.7 | 0.00 | 0.00 | 0.00 | 52 | 1027.6 |
| 20260508035053 | 20 | 22 | 12.9 | 25.7 | 0.00 | 0.00 | 0.00 | 51 | 1027.9 |
| 20260508034604 | 20 | 78 | 9.7 | 17.7 | 0.00 | 0.00 | 0.00 | 51 | 1028.0 |
| 20260508034053 | 20 | 9 | 8.0 | 17.7 | 0.00 | 0.00 | 0.00 | 52 | 1028.0 |
| 20260508033552 | 20 | 19 | 8.0 | 22.5 | 0.00 | 0.00 | 0.00 | 53 | 1028.1 |
| 20260508033057 | 20 | 65 | 11.3 | 22.5 | 0.00 | 0.00 | 0.00 | 52 | 1028.2 |
| 20260508032553 | 20 | 33 | 11.3 | 22.5 | 0.00 | 0.00 | 0.00 | 52 | 1028.3 |
| 20260508032053 | 20 | 19 | 12.9 | 22.5 | 0.00 | 0.00 | 0.00 | 52 | 1028.3 |
| 20260508031559 | 20 | 41 | 11.3 | 25.7 | 0.00 | 0.00 | 0.00 | 52 | 1028.4 |
| 20260508031053 | 20 | 51 | 9.7 | 25.7 | 0.00 | 0.00 | 0.00 | 53 | 1028.5 |
| 20260508030553 | 19 | 46 | 12.9 | 25.7 | 0.00 | 0.00 | 0.00 | 53 | 1028.5 |
| 20260508030100 | 19 | 24 | 11.3 | 25.7 | 0.00 | 0.00 | 0.00 | 53 | 1028.6 |
| 20260508025553 | 19 | 103 | 11.3 | 25.7 | 0.00 | 0.00 | 0.00 | 53 | 1028.6 |
| 20260508025053 | 19 | 72 | 11.3 | 25.7 | 0.00 | 0.00 | 0.00 | 53 | 1028.7 |
| 20260508024554 | 19 | 76 | 12.9 | 25.7 | 0.00 | 0.00 | 0.00 | 52 | 1028.8 |
| 20260508024053 | 19 | 9 | 14.5 | 25.7 | 0.00 | 0.00 | 0.00 | 52 | 1028.9 |
| 20260508023552 | 19 | 46 | 14.5 | 25.7 | 0.00 | 0.00 | 0.00 | 52 | 1028.8 |
| 20260508023057 | 19 | 43 | 14.5 | 22.5 | 0.00 | 0.00 | 0.00 | 52 | 1028.8 |
| 20260508022552 | 19 | 29 | 9.7 | 24.1 | 0.00 | 0.00 | 0.00 | 53 | 1028.7 |
| 20260508022053 | 18 | 10 | 11.3 | 24.1 | 0.00 | 0.00 | 0.00 | 53 | 1028.8 |
| 20260508021554 | 18 | 96 | 11.3 | 24.1 | 0.00 | 0.00 | 0.00 | 53 | 1028.8 |
| 20260508021052 | 18 | 53 | 12.9 | 24.1 | 0.00 | 0.00 | 0.00 | 53 | 1028.9 |
| 20260508020557 | 18 | 66 | 11.3 | 22.5 | 0.00 | 0.00 | 0.00 | 54 | 1028.9 |
| 20260508020052 | 18 | 121 | 9.7 | 19.3 | 0.00 | 0.00 | 0.00 | 55 | 1028.9 |
| 20260508015553 | 18 | 71 | 12.9 | 19.3 | 0.00 | 0.00 | 0.00 | 55 | 1029.0 |
| 20260508015053 | 18 | 54 | 6.4 | 17.7 | 0.00 | 0.00 | 0.00 | 56 | 1029.2 |
| 20260508014556 | 17 | 68 | 4.8 | 14.5 | 0.00 | 0.00 | 0.00 | 58 | 1029.4 |
| 20260508014055 | 17 | 82 | 8.0 | 14.5 | 0.00 | 0.00 | 0.00 | 58 | 1029.3 |